TimeHST,TemperatureF,Dew PointF,Humidity,Sea Level PressureIn,VisibilityMPH,Wind Direction,Wind SpeedMPH,Gust SpeedMPH,PrecipitationIn,Events,Conditions,WindDirDegrees,DateUTC
12:53 AM,66.0,61.0,84,30.11,10.0,Calm,Calm,-,N/A,,Clear,0,2013-11-26 10:53:00
1:53 AM,64.9,61.0,87,30.11,10.0,Calm,Calm,-,N/A,,Mostly Cloudy,0,2013-11-26 11:53:00
2:53 AM,66.0,61.0,84,30.09,10.0,Calm,Calm,-,N/A,,Scattered Clouds,0,2013-11-26 12:53:00
3:53 AM,64.9,61.0,87,30.09,10.0,Calm,Calm,-,N/A,,Clear,0,2013-11-26 13:53:00
4:53 AM,64.9,61.0,87,30.09,10.0,Calm,Calm,-,N/A,,Clear,0,2013-11-26 14:53:00
5:53 AM,64.9,61.0,87,30.11,10.0,Calm,Calm,-,N/A,,Clear,0,2013-11-26 15:53:00
6:53 AM,66.0,62.1,87,30.11,10.0,Variable,3.5,-,N/A,,Clear,0,2013-11-26 16:53:00
7:53 AM,70.0,63.0,78,30.12,10.0,Calm,Calm,-,N/A,,Clear,0,2013-11-26 17:53:00
8:53 AM,75.9,64.9,69,30.13,10.0,Variable,3.5,-,N/A,,Clear,0,2013-11-26 18:53:00
9:53 AM,78.1,64.0,62,30.13,10.0,ESE,8.1,-,N/A,,Clear,110,2013-11-26 19:53:00
10:53 AM,80.1,64.9,60,30.11,10.0,East,6.9,16.1,N/A,,Clear,90,2013-11-26 20:53:00
11:53 AM,80.1,64.0,58,30.09,10.0,Variable,6.9,-,N/A,,Clear,0,2013-11-26 21:53:00
12:53 PM,81.0,64.9,58,30.05,10.0,ESE,11.5,17.3,N/A,,Clear,120,2013-11-26 22:53:00
1:53 PM,82.0,64.9,56,30.02,10.0,SE,10.4,-,N/A,,Clear,130,2013-11-26 23:53:00
2:53 PM,81.0,64.9,58,30.01,10.0,ESE,8.1,-,N/A,,Clear,110,2013-11-27 00:53:00
3:39 PM,80.6,62.6,54,29.99,10.0,Variable,5.8,-,N/A,,Partly Cloudy,0,2013-11-27 01:39:00
3:53 PM,81.0,62.1,52,30.01,10.0,Variable,6.9,-,N/A,,Partly Cloudy,0,2013-11-27 01:53:00
4:53 PM,78.1,63.0,60,30.02,10.0,NE,6.9,-,N/A,,Clear,50,2013-11-27 02:53:00
5:53 PM,73.9,64.0,71,30.05,10.0,Variable,3.5,-,N/A,,Clear,0,2013-11-27 03:53:00
6:53 PM,73.0,64.0,73,30.04,10.0,East,4.6,-,N/A,,Clear,80,2013-11-27 04:53:00
7:53 PM,71.1,64.0,78,30.09,10.0,NE,3.5,-,N/A,,Clear,50,2013-11-27 05:53:00
8:53 PM,70.0,64.9,84,30.10,10.0,ENE,4.6,-,N/A,,Clear,60,2013-11-27 06:53:00
9:53 PM,70.0,64.0,81,30.12,10.0,Variable,4.6,-,N/A,,Clear,0,2013-11-27 07:53:00
10:53 PM,71.1,64.0,78,30.13,10.0,Variable,3.5,-,N/A,,Clear,0,2013-11-27 08:53:00
11:53 PM,70.0,63.0,78,30.13,10.0,Variable,3.5,-,N/A,,Clear,0,2013-11-27 09:53:00